Location: Austin
(30.3000°N, 97.7500°W)
Time: 00:41:31
(UTC-06:00)

COSMO-SKYMED 1 - Pass Details

Date: 04 November 2025
Orbit: 580 x 582 km, 97.9° (Epoch: 15 November)

Event Time Altitude Azimuth Distance (km) Brightness Sun altitude
Rises 18:14:43 0° 22° (NNE) 2,799 5.6 -7.9°
Reaches altitude 10° 18:17:00 10° 30° (NNE) 1,896 4.7 -8.3°
Maximum altitude 18:20:50 38° 99° (E) 898 2.9 -9.2°
Drops below altitude 10° 18:24:39 10° 168° (SSE) 1,886 5.1 -10.0°
Sets 18:26:54 0° 176° (S) 2,782 6.0 -10.4°
